User: anonymous   Login
Location: Owatonna
(44.0840°N, 93.2260°W)
Time: 06:01:35
(UTC-05:00)
Language:

Cosmos 839 Rocket - Orbit

View from above orbital plane
View from above orbital plane
View from above satellite
View from above satellite

Ground track
Ground track

The orbit data is extracted from the following two-line orbital elements,

1  9013U 76067B   17291.05331876 -.00000019 +00000-0 +11936-3 0  9996
2  9013 065.8630 127.9569 0711351 024.3358 119.0027 12.35328657861585
Epoch (UTC): 18 October 2017 01:16:46
Eccentricity: 0.0711351
inclination: 65.8630°
perigee height: 964 km
apogee height: 2089 km
right ascension of ascending node: 127.9569°
argument of perigee: 24.3358°
revolutions per day: 12.35328657
mean anomaly at epoch: 119.0027°
orbit number at epoch: 86158

The dashed part of the orbit path shows where the satellite is in the earth's shadow,  

DLR